Погода в Факаофо

Токелау     11°03′34″S   171°03′50″W
темп.,
°C
ветер,
м/с
пор.,
м/с
влажн.,
%
обл.,
%
осадки,
мм/ч
давл.,
гПа
погр.,
м
18 октября, пн
пн1801:00+28вюв910786 0.8 1013924
04:00+28вюв89775 0.8 1012969
07:00+28вюв910766 0.8 10141038
10:00+29вюв910755 0.1 10151112
13:00+29в8974100 0.1 10131049
16:00+28в89755 0.2 1011986
19:00+29в887279 0.3 1013967
22:00+28в78765 0.1 1015925
19 октября, вт
вт1901:00+28в6773100 1.9 1013889
04:00+28в6772100 0.5 1012894
07:00+28в66676 0.7 1014947
10:00+28в567513 0.3 1014807
13:00+29вюв66687 0.9 1013943
16:00+28вюв677510 0.1 1011893
19:00+28вюв897843 1.4 1012880
22:00+28вюв9107918 2.3 1014919
20 октября, ср
ср2001:00+28в89765 2.9 1012918
04:00+28в77765 0.3 1011895
07:00+28в777663 0.9 1013827
10:00+28в777732 0.8 1014803
13:00+28в667538 2.3 1012901
16:00+28в557668 0.5 1011790
19:00+28в55777 0.8 1013774
22:00+28в557610 0.1 1014802
21 октября, чт
чт2101:00+27вюв55795 1.9 1013643
04:00+27вюв55775 0.8 1012723
07:00+27в56799 1.9 1014705
10:00+27в557635 1.1 1015738
13:00+27всв33775 3.2 1013507
16:00+27св337433 1.8 1012538
19:00+28всв23727 1.8 1013636
22:00+28св447123 0.1 1014844
22 октября, пт
пт2201:00+28св33705 0.1 1012769
04:00+28всв227097 0.0 1012695
07:00+27св2270100 0.0 1013724
10:00+28св237163 0.0 1014784
13:00+28ссв2270100 0.0 1012833
16:00+28с2269100 0.0 1010726
19:00+28ссз1169100 0.1 1012537
22:00+28сз117010 0.1 1013399